Weather History for Hammond, LA

Change the Weather History Date:

Monday, March 10, 2014

  Actual Average (KMSY) Record (KMSY)
Temperature  
Mean Temperature 63 °F -  
Max Temperature 78 °F 72 °F 82 °F (1967)
Min Temperature 48 °F 51 °F 34 °F (1961)
Degree Days  
Heating Degree Days 2    
Growing Degree Days 13 (Base 50)    
Moisture  
Dew Point 50 °F    
Average Humidity 66    
Maximum Humidity 94    
Minimum Humidity 34    
Precipitation  
Precipitation 0.00 in - - ()
Sea Level Pressure  
Sea Level Pressure 30.09 in    
Wind  
Wind Speed 1 mph (South)    
Max Wind Speed 9 mph    
Max Gust Speed -    
Visibility 9 miles    
Events      
Averages and records for this station are not official NWS values.
T = Trace of Precipitation, MM = Missing Value Source: NWS Daily Summary

Daily Weather History Graph

Daily Weather History Graph

Search for Another Location

Airport:

Trip Planner

Search our weather history database for the weather conditions in past years. The results will help you decide how hot, cold, wet, or windy it might be!

Date:

Astronomy

Mar. 10, 2014 Rise Set
Actual Time 7:17 AM CDT 7:06 PM CDT
Civil Twilight 6:53 AM CDT 7:30 PM CDT
Nautical Twilight 6:25 AM CDT 7:58 PM CDT
Astronomical Twilight 5:57 AM CDT 8:26 PM CDT
Moon 2:06 PM CDT (3/10) 3:12 AM CDT (3/10)
Length of Visible Light 12h 37m
Length of Day
11h 49m
Waxing Gibbous, 70% of the Moon is Illuminated
Mar 10
Waxing Gibbous
Mar 16
Full
Mar 23
Last Quarter
Mar 30
New
Apr 7
First Quarter

Hourly Weather History & Observations

Time (CDT) Temp. Dew Point Humidity Pressure Visibility Wind Dir Wind Speed Gust Speed Precip Events Conditions
12:15 AM 55.4 °F 51.8 °F 88% 30.19 in 10.0 mi Calm Calm - N/A   Clear
12:35 AM 53.6 °F 50.0 °F 88% 30.19 in 10.0 mi Calm Calm - N/A   Clear
12:55 AM 53.6 °F 50.0 °F 88% 30.18 in 10.0 mi Calm Calm - N/A   Clear
1:15 AM 53.6 °F 50.0 °F 88% 30.17 in 10.0 mi Calm Calm - N/A   Clear
1:35 AM 51.8 °F 50.0 °F 94% 30.17 in 10.0 mi Calm Calm - N/A   Clear
1:55 AM 51.8 °F 50.0 °F 94% 30.17 in 10.0 mi Calm Calm - N/A   Clear
2:15 AM 51.8 °F 48.2 °F 88% 30.17 in 10.0 mi Calm Calm - N/A   Clear
2:35 AM 51.8 °F 48.2 °F 88% 30.16 in 10.0 mi Calm Calm - N/A   Clear
2:55 AM 51.8 °F 48.2 °F 88% 30.15 in 7.0 mi Calm Calm - N/A   Clear
3:15 AM 50.0 °F 48.2 °F 94% 30.15 in 10.0 mi North 3.5 mph - N/A   Clear
3:35 AM 51.8 °F 48.2 °F 88% 30.14 in 10.0 mi Calm Calm - N/A   Clear
3:55 AM 50.0 °F 48.2 °F 94% 30.14 in 7.0 mi Calm Calm - N/A   Clear
4:15 AM 50.0 °F 48.2 °F 94% 30.13 in 10.0 mi Calm Calm - N/A   Clear
4:35 AM 51.8 °F 48.2 °F 88% 30.13 in 7.0 mi Calm Calm - N/A   Clear
4:55 AM 50.0 °F 48.2 °F 94% 30.13 in 10.0 mi Calm Calm - N/A   Clear
5:15 AM 50.0 °F 46.4 °F 87% 30.14 in 5.0 mi Calm Calm - N/A   Clear
5:35 AM 50.0 °F 48.2 °F 94% 30.14 in 7.0 mi Calm Calm - N/A   Clear
5:55 AM 48.2 °F 46.4 °F 93% 30.14 in 4.0 mi Calm Calm - N/A   Clear
6:15 AM 50.0 °F 48.2 °F 94% 30.15 in 7.0 mi Calm Calm - N/A   Clear
6:35 AM 50.0 °F 46.4 °F 87% 30.16 in 10.0 mi Calm Calm - N/A   Clear
6:55 AM 50.0 °F 46.4 °F 87% 30.16 in 3.0 mi Calm Calm - N/A   Clear
7:10 AM 48.2 °F 46.4 °F 93% 30.16 in 7.0 mi Calm Calm - N/A   Clear
7:35 AM 48.2 °F 46.4 °F 93% 30.17 in 2.5 mi Calm Calm - N/A   Clear
7:55 AM 50.0 °F 46.4 °F 87% 30.18 in 4.0 mi Calm Calm - N/A   Clear
8:15 AM 51.8 °F 50.0 °F 94% 30.18 in 5.0 mi Calm Calm - N/A   Clear
8:35 AM 55.4 °F 51.8 °F 88% 30.17 in 7.0 mi Calm Calm - N/A   Clear
8:55 AM 59.0 °F 50.0 °F 72% 30.17 in 10.0 mi Calm Calm - N/A   Clear
9:15 AM 60.8 °F 50.0 °F 68% 30.18 in 10.0 mi NNE 3.5 mph - N/A   Clear
9:35 AM 62.6 °F 50.0 °F 63% 30.18 in 10.0 mi Calm Calm - N/A   Clear
9:55 AM 64.4 °F 50.0 °F 59% 30.18 in 10.0 mi Calm Calm - N/A   Clear
10:15 AM 66.2 °F 50.0 °F 56% 30.18 in 10.0 mi Calm Calm - N/A   Clear
10:35 AM 68.0 °F 50.0 °F 52% 30.18 in 10.0 mi Calm Calm - N/A   Clear
10:55 AM 69.8 °F 50.0 °F 49% 30.17 in 10.0 mi Calm Calm - N/A   Clear
11:15 AM 71.6 °F 50.0 °F 46% 30.16 in 10.0 mi Calm Calm - N/A   Clear
11:35 AM 73.4 °F 50.0 °F 44% 30.15 in 10.0 mi Calm Calm - N/A   Clear
11:55 AM 73.4 °F 51.8 °F 47% 30.14 in 10.0 mi Calm Calm - N/A   Clear
12:15 PM 73.4 °F 50.0 °F 44% 30.13 in 10.0 mi Calm Calm - N/A   Clear
12:35 PM 75.2 °F 50.0 °F 41% 30.13 in 10.0 mi Calm Calm - N/A   Clear
12:55 PM 75.2 °F 48.2 °F 38% 30.11 in 10.0 mi South 5.8 mph - N/A   Clear
1:15 PM 77.0 °F 48.2 °F 36% 30.10 in 10.0 mi SSE 3.5 mph - N/A   Clear
1:35 PM 77.0 °F 48.2 °F 36% 30.08 in 10.0 mi West 3.5 mph - N/A   Clear
1:55 PM 78.8 °F 48.2 °F 34% 30.07 in 10.0 mi Calm Calm - N/A   Clear
2:15 PM 78.8 °F 48.2 °F 34% 30.05 in 10.0 mi Calm Calm - N/A   Clear
2:35 PM 78.8 °F 48.2 °F 34% 30.04 in 10.0 mi SSE 3.5 mph - N/A   Clear
2:55 PM 78.8 °F 50.0 °F 36% 30.03 in 10.0 mi SSW 4.6 mph - N/A   Clear
3:15 PM 78.8 °F 48.2 °F 34% 30.02 in 10.0 mi South 4.6 mph - N/A   Clear
3:35 PM 78.8 °F 48.2 °F 34% 30.02 in 10.0 mi SSW 6.9 mph - N/A   Clear
3:55 PM 78.8 °F 50.0 °F 36% 30.01 in 10.0 mi South 6.9 mph - N/A   Clear
4:15 PM 78.8 °F 50.0 °F 36% 30.00 in 10.0 mi SSE 6.9 mph - N/A   Clear
4:35 PM 78.8 °F 50.0 °F 36% 30.00 in 10.0 mi South 6.9 mph - N/A   Clear
4:55 PM 78.8 °F 50.0 °F 36% 29.99 in 10.0 mi SSE 6.9 mph - N/A   Clear
5:15 PM 78.8 °F 50.0 °F 36% 29.99 in 10.0 mi South 8.1 mph - N/A   Clear
5:35 PM 77.0 °F 50.0 °F 39% 29.99 in 10.0 mi South 9.2 mph - N/A   Clear
5:55 PM 75.2 °F 50.0 °F 41% 29.99 in 10.0 mi SSE 9.2 mph - N/A   Clear
6:15 PM 73.4 °F 51.8 °F 47% 30.00 in 10.0 mi South 8.1 mph - N/A   Clear
6:35 PM 71.6 °F 51.8 °F 50% 29.99 in 10.0 mi South 5.8 mph - N/A   Clear
6:55 PM 71.6 °F 51.8 °F 50% 29.99 in 10.0 mi South 4.6 mph - N/A   Clear
7:10 PM 69.8 °F 51.8 °F 53% 29.99 in 10.0 mi SSE 4.6 mph - N/A   Clear
7:35 PM 68.0 °F 53.6 °F 60% 30.00 in 7.0 mi South 3.5 mph - N/A   Clear
7:55 PM 68.0 °F 53.6 °F 60% 30.00 in 10.0 mi Calm Calm - N/A   Clear
8:15 PM 68.0 °F 53.6 °F 60% 30.00 in 10.0 mi Calm Calm - N/A   Clear
8:35 PM 68.0 °F 51.8 °F 56% 30.00 in 10.0 mi Calm Calm - N/A   Clear
8:55 PM 66.2 °F 51.8 °F 60% 30.00 in 10.0 mi Calm Calm - N/A   Clear
9:15 PM 66.2 °F 53.6 °F 64% 30.01 in 10.0 mi South 3.5 mph - N/A   Clear
9:35 PM 62.6 °F 53.6 °F 72% 30.00 in 10.0 mi Calm Calm - N/A   Clear
9:55 PM 62.6 °F 53.6 °F 72% 30.01 in 10.0 mi SSE 4.6 mph - N/A   Scattered Clouds
10:15 PM 62.6 °F 55.4 °F 77% 30.00 in 10.0 mi South 4.6 mph - N/A   Mostly Cloudy
10:35 PM 64.4 °F 55.4 °F 73% 30.00 in 10.0 mi South 5.8 mph - N/A   Scattered Clouds
10:55 PM 66.2 °F 57.2 °F 73% 30.00 in 10.0 mi South 6.9 mph - N/A   Scattered Clouds
11:15 PM 66.2 °F 57.2 °F 73% 30.00 in 10.0 mi South 6.9 mph - N/A   Scattered Clouds
11:35 PM 66.2 °F 57.2 °F 73% 30.00 in 10.0 mi South 4.6 mph - N/A   Scattered Clouds
11:50 PM 66.2 °F 57.2 °F 73% 29.99 in 10.0 mi South 5.8 mph - N/A   Scattered Clouds